[[{"header":{"parameterUnit":"m.s-1","parameterCategory":1,"la1":30.2991,"la2":30.254,"lo1":-89.0895,"lo2":-89.0444,"dy":0.0017,"dx":0.0017,"nx":28,"ny":28,"refTime":"2024-06-21T03:00:00:Z","depth":0,"parameterNumber":2,"parameterNumberName":"U-component_of_WINDS"},"data":[0,0,0,0,0,0,0,0,0,0,0,0,0,0,0,0,0,0,0,0,0,0,0,0,0,0,0,0,0,0,0,0,0,0,0,0,0,0,0,0,0,0,0,0,0,0,0,0,0,0,0,0,0,0,0,0,0,0,-5.3204,-5.3204,0,-5.3151,-5.3151,-5.315,-5.3037,-5.3035,-5.3033,-5.3031,-5.298,-5.2981,-5.2982,0,0,0,0,0,0,0,0,0,0,0,0,0,-5.3212,-5.3213,-5.3204,-5.3204,-5.3203,-5.3152,-5.3151,-5.315,-5.3038,-5.3035,-5.3032,-5.303,-5.298,-5.2981,-5.2982,0,0,0,0,0,0,0,0,0,0,0,0,0,-5.3189,-5.3213,-5.3204,-5.3141,-5.3134,-5.3152,-5.3151,-5.315,-5.3038,-5.3035,-5.3032,-5.3028,-5.298,-5.2981,-5.2982,-5.3058,0,0,-5.2985,-5.2986,0,0,0,0,0,0,0,0,-5.3191,-5.3189,-5.3151,-5.3145,-5.3138,-5.3097,-5.3135,-5.3119,-5.3039,-5.3075,-5.3031,-5.3027,-5.3022,-5.302,-5.3017,-5.3055,-5.3053,-5.2986,-5.2986,-5.2987,-5.2987,0,0,0,0,0,0,0,-5.3192,-5.3191,-5.3183,-5.315,-5.3143,-5.3116,-5.3109,-5.3131,-5.3069,-5.3072,-5.3063,-5.3058,-5.3018,-5.3017,-5.3015,-5.3053,-5.2986,-5.2987,-5.2987,-5.2988,-5.315,-5.3154,0,0,0,0,0,0,-5.3203,-5.3193,-5.3185,-5.3182,-5.3156,-5.3119,-5.3111,-5.3114,-5.3068,-5.3058,-5.3061,-5.3053,-5.3016,-5.3014,-5.3013,-5.3098,-5.2987,-5.2988,-5.2989,-5.3147,-5.3151,-5.3155,0,0,0,0,0,0,-5.3203,-5.3203,-5.3187,-5.3185,-5.3181,-5.3122,-5.3127,-5.3115,-5.3113,-5.306,-5.3049,-5.3071,-5.3013,-5.3011,-5.3047,-5.3094,-5.2988,-5.2989,-5.3142,-5.3148,-5.3153,-5.3269,0,0,0,0,0,0,-5.3204,-5.3204,-5.3231,-5.3186,-5.3181,-5.3221,-5.313,-5.3116,-5.3115,-5.3104,-5.3066,-5.3057,-5.3011,-5.3046,-5.3048,-5.3094,-5.299,-5.3138,-5.3145,-5.3151,-5.3261,-5.3278,-5.3292,0,0,0,0,0,-5.3205,-5.3267,-5.3233,-5.3233,-5.3214,-5.3224,-5.3221,-5.3166,-5.3119,-5.3146,-5.3113,-5.3058,-5.309,-5.3051,-5.3052,-5.3099,-5.3135,-5.3143,-5.3151,-5.3253,-5.3274,-5.3292,0,0,0,0,0,0,-5.3319,-5.3259,-5.3221,-5.3271,-5.3253,-5.3205,-5.3237,-5.319,-5.3186,-5.3176,-5.3109,-5.3102,-5.3146,-5.3127,-5.3084,-5.317,-5.3103,-5.3112,-5.3181,-5.32,-5.3216,-5.3218,-5.2991,0,0,0,0,0,-5.335,-5.3362,-5.331,-5.3359,-5.3352,-5.3297,-5.3299,-5.3258,-5.3238,-5.323,-5.3199,-5.3182,-5.3188,-5.3194,-5.3196,-5.3258,-5.3248,-5.3292,-5.3308,-5.3321,-5.3328,-5.3359,-5.3377,-5.3182,-5.3182,-5.3181,0,0,-5.3414,-5.3383,-5.3395,-5.3381,-5.3362,-5.3377,-5.3291,-5.3311,-5.3321,-5.3233,-5.3264,-5.3242,-5.3219,-5.3268,-5.3288,-5.3253,-5.3381,-5.3331,-5.3342,-5.3342,-5.3369,-5.3388,-5.3404,-5.3187,-5.3186,-5.3185,0,0,-5.3537,-5.3516,-5.3553,-5.3537,-5.351,-5.3473,-5.3483,-5.3442,-5.3423,-5.3453,-5.3387,-5.34,-5.3412,-5.3398,-5.3393,-5.3513,-5.3462,-5.3517,-5.3598,-5.3629,-5.3644,-5.3658,-5.3699,-5.3715,-5.3525,-5.3525,-5.3526,0,-5.362,-5.3638,-5.3579,-5.3602,-5.3598,-5.3519,-5.3557,-5.3544,-5.3521,-5.352,-5.3482,-5.3495,-5.3474,-5.3518,-5.3548,-5.3547,-5.3555,-5.3519,-5.3647,-5.366,-5.3671,-5.371,-5.3726,-5.3532,-5.3531,-5.3531,-5.353,0,-5.3741,-5.3756,-5.3789,-5.3767,-5.3767,-5.3798,-5.3744,-5.3752,-5.3712,-5.368,-5.3712,-5.3685,-5.368,-5.3688,-5.365,-5.3727,-5.3706,-5.3659,-5.3589,-5.3697,-5.3733,-5.3747,-5.3541,-5.3539,-5.3537,-5.3535,0,0,-5.3932,-5.3877,-5.3891,-5.3879,-5.3845,-5.3855,-5.3884,-5.3878,-5.3886,-5.3873,-5.3895,-5.3908,-5.3863,-5.3858,-5.3817,-5.3845,-5.3941,-5.3793,-5.3792,-5.382,-5.4023,-5.4057,-5.4075,-5.3908,-5.3911,-5.3913,-5.4024,0,-5.4046,-5.4088,-5.4036,-5.4091,-5.4103,-5.403,-5.4054,-5.4037,-5.4008,-5.4016,-5.3985,-5.3994,-5.3936,-5.3932,-5.3956,-5.3924,-5.398,-5.3916,-5.3927,-5.3928,-5.3932,-5.4094,-5.413,-5.4236,-5.4038,-5.404,-5.4042,0,-5.4183,-5.4175,-5.4231,-5.4193,-5.4196,-5.4219,-5.421,-5.4218,-5.4197,-5.4175,-5.4169,-5.4121,-5.4147,-5.4083,-5.4117,-5.4075,-5.4077,-5.4062,-5.4065,-5.4062,-5.3989,-5.4093,-5.4269,-5.4284,-5.4063,-5.4062,-5.406,0,-5.4314,-5.4319,-5.4352,-5.4345,-5.4302,-5.432,-5.4303,-5.4279,-5.4279,-5.4273,-5.4272,-5.427,-5.4268,-5.4268,-5.422,-5.4178,-5.4261,-5.4192,-5.4243,-5.4244,-5.4261,-5.426,-5.4437,-5.4268,-5.4267,-5.4267,-5.4267,0,-5.4445,-5.4481,-5.441,-5.443,-5.4469,-5.441,-5.4451,-5.4427,-5.4407,-5.4422,-5.436,-5.4376,-5.4314,-5.4323,-5.4287,-5.4321,-5.4322,-5.4304,-5.4293,-5.4308,-5.431,-5.4306,-5.4296,-5.4271,-5.427,-5.4269,-5.4269,0,-5.4596,-5.455,-5.4581,-5.4539,-5.4529,-5.456,-5.4524,-5.4541,-5.451,-5.453,-5.4531,-5.4482,-5.449,-5.4444,-5.4445,-5.442,-5.4471,-5.445,-5.4478,-5.447,-5.4522,-5.4517,-5.4701,-5.4721,-5.4541,-5.4543,-5.4545,0,-5.4681,-5.4706,-5.4667,-5.4672,-5.4658,-5.4668,-5.4668,-5.4612,-5.4615,-5.4594,-5.4614,-5.4618,-5.4616,-5.4633,-5.4598,-5.4599,-5.4575,-5.464,-5.4574,-5.4588,-5.4573,-5.4571,-5.4573,-5.4652,-5.4654,-5.4656,-5.4658,0,-5.4835,-5.4811,-5.4813,-5.4807,-5.4809,-5.4802,-5.4791,-5.4799,-5.4739,-5.4746,-5.4753,-5.4752,-5.4753,-5.4756,-5.475,-5.4733,-5.4686,-5.4679,-5.469,-5.4704,-5.4718,-5.4709,-5.4512,-5.4674,-5.4673,-5.4671,-5.4671,-5.467,-5.4954,-5.4973,-5.4948,-5.4952,-5.4938,-5.493,-5.4944,-5.4915,-5.4919,-5.4914,-5.4882,-5.4895,-5.4875,-5.4861,-5.485,-5.486,-5.4829,-5.4846,-5.4849,-5.4854,-5.4862,-5.4719,-5.4859,-5.4858,-5.4858,-5.4857,-5.4857,0,-5.5103,-5.5084,-5.5088,-5.5074,-5.5078,-5.5033,-5.502,-5.5026,-5.5037,-5.5022,-5.5023,-5.5031,-5.5035,-5.5001,-5.5001,-5.5015,-5.4994,-5.5017,-5.5014,-5.5011,-5.4891,-5.488,-5.5035,-5.5035,-5.5035,-5.5034,-5.5034,-5.5034,-5.5181,-5.521,-5.5184,-5.5208,-5.5188,-5.5199,-5.5195,-5.5188,-5.5175,-5.5187,-5.5189,-5.5167,-5.5145,-5.5142,-5.5144,-5.5134,-5.5136,-5.5166,-5.5149,-5.5037,-5.5019,-5.5003,-5.4992,-5.5168,-5.5168,-5.5268,-5.5269,-5.5269]},{"header":{"parameterUnit":"m.s-1","parameterCategory":1,"la1":30.2991,"la2":30.254,"lo1":-89.0895,"lo2":-89.0444,"dy":0.0017,"dx":0.0017,"nx":28,"ny":28,"refTime":"2024-06-21T03:00:00:Z","depth":0,"parameterNumber":3,"parameterNumberName":"V-component_of_WINDS"},"data":[0,0,0,0,0,0,0,0,0,0,0,0,0,0,0,0,0,0,0,0,0,0,0,0,0,0,0,0,0,0,0,0,0,0,0,0,0,0,0,0,0,0,0,0,0,0,0,0,0,0,0,0,0,0,0,0,0,0,0.5228,0.5228,0,0.5198,0.5197,0.5197,0.5193,0.5193,0.5194,0.5194,0.5159,0.5158,0.5157,0,0,0,0,0,0,0,0,0,0,0,0,0,0.5281,0.528,0.5228,0.5228,0.5227,0.5198,0.5197,0.5197,0.5193,0.5193,0.5194,0.5194,0.516,0.5158,0.5157,0,0,0,0,0,0,0,0,0,0,0,0,0,0.5255,0.528,0.5228,0.5222,0.5221,0.5198,0.5197,0.5197,0.5193,0.5193,0.5194,0.5194,0.516,0.5158,0.5156,0.5136,0,0,0.5151,0.515,0,0,0,0,0,0,0,0,0.5257,0.5253,0.5223,0.5222,0.5221,0.52,0.5203,0.5176,0.5193,0.5204,0.5194,0.5195,0.5172,0.5169,0.5162,0.5134,0.5133,0.5151,0.515,0.5149,0.5148,0,0,0,0,0,0,0,0.5258,0.5254,0.5216,0.5223,0.5222,0.522,0.5217,0.5198,0.5185,0.5203,0.5202,0.5199,0.5172,0.5164,0.5162,0.5132,0.5151,0.5149,0.5148,0.5147,0.5087,0.5087,0,0,0,0,0,0,0.5262,0.5256,0.5217,0.5215,0.5241,0.5219,0.5215,0.5206,0.5186,0.5183,0.5199,0.5199,0.5167,0.5164,0.516,0.5136,0.5149,0.5147,0.5146,0.5088,0.5087,0.5087,0,0,0,0,0,0,0.5263,0.5258,0.5218,0.5235,0.523,0.5217,0.5207,0.5205,0.5198,0.5183,0.518,0.5193,0.5167,0.5163,0.5143,0.5134,0.5146,0.5145,0.5088,0.5088,0.5087,0.5086,0,0,0,0,0,0,0.5264,0.5259,0.5251,0.5235,0.5229,0.5202,0.5207,0.5204,0.5195,0.5195,0.5177,0.5175,0.5167,0.5145,0.5141,0.5132,0.5143,0.5089,0.5088,0.5087,0.5087,0.5085,0.5084,0,0,0,0,0,0.5266,0.5251,0.5251,0.5246,0.522,0.5201,0.5197,0.519,0.5195,0.5187,0.5177,0.5175,0.5136,0.5143,0.5138,0.5129,0.5089,0.5088,0.5087,0.5087,0.5085,0.5084,0,0,0,0,0,0,0.5264,0.5249,0.5248,0.5227,0.5216,0.52,0.519,0.5189,0.5175,0.5175,0.5166,0.5162,0.5142,0.5133,0.5142,0.5109,0.5113,0.5111,0.5115,0.5113,0.5112,0.5114,0.5142,0,0,0,0,0,0.5262,0.5249,0.5236,0.5218,0.5213,0.5203,0.5194,0.519,0.5177,0.5172,0.5161,0.5147,0.5132,0.5122,0.5107,0.5086,0.5082,0.5077,0.5076,0.5075,0.5072,0.5061,0.5059,0.5083,0.5083,0.5083,0,0,0.5256,0.5246,0.5238,0.5218,0.5208,0.5195,0.5198,0.5183,0.5173,0.5169,0.515,0.5141,0.5126,0.5105,0.5095,0.5097,0.5065,0.5073,0.5073,0.5071,0.506,0.5058,0.5056,0.5082,0.5082,0.5082,0,0,0.5238,0.5229,0.5214,0.5205,0.5192,0.5185,0.5182,0.5167,0.5162,0.5143,0.514,0.5127,0.5101,0.5091,0.5082,0.5063,0.506,0.5058,0.5051,0.504,0.5038,0.5036,0.503,0.5027,0.5056,0.5056,0.5056,0,0.5231,0.5211,0.5206,0.5192,0.5184,0.5182,0.5167,0.5158,0.5139,0.5133,0.5136,0.5105,0.5094,0.5071,0.5067,0.506,0.5056,0.5059,0.5039,0.5037,0.5035,0.5029,0.5026,0.5056,0.5056,0.5056,0.5056,0,0.5205,0.5191,0.5181,0.5165,0.5156,0.5141,0.5133,0.5124,0.5122,0.5115,0.5096,0.5084,0.5067,0.5061,0.5057,0.5038,0.504,0.5041,0.5045,0.5033,0.5027,0.5024,0.5056,0.5056,0.5056,0.5056,0,0,0.5183,0.5166,0.5162,0.5156,0.5142,0.5131,0.5116,0.5102,0.5094,0.5082,0.5069,0.5049,0.505,0.504,0.5036,0.5026,0.5013,0.5029,0.5028,0.5026,0.4991,0.499,0.4987,0.5012,0.5011,0.5011,0.4992,0,0.5163,0.5138,0.5134,0.5113,0.51,0.5099,0.5087,0.5076,0.507,0.5058,0.5051,0.5037,0.504,0.5034,0.5025,0.5016,0.5005,0.5017,0.4999,0.4999,0.5003,0.4984,0.4983,0.4966,0.499,0.4989,0.4989,0,0.5136,0.5126,0.5103,0.5092,0.5087,0.5076,0.5063,0.5051,0.504,0.5036,0.5027,0.5024,0.5008,0.5015,0.4993,0.5002,0.4994,0.4989,0.4989,0.4986,0.4993,0.4981,0.496,0.4958,0.4985,0.4985,0.4986,0,0.5123,0.5102,0.5087,0.5081,0.5068,0.506,0.5054,0.5044,0.5035,0.5024,0.5018,0.5005,0.4997,0.4986,0.498,0.4985,0.4959,0.4965,0.4955,0.4956,0.4949,0.495,0.4927,0.4945,0.4945,0.4945,0.4945,0,0.5101,0.5087,0.5081,0.5071,0.5056,0.5052,0.5036,0.503,0.5021,0.501,0.5008,0.4997,0.499,0.4978,0.4972,0.4956,0.4953,0.4949,0.4947,0.4949,0.4949,0.4943,0.4944,0.4945,0.4945,0.4945,0.4945,0,0.5082,0.5078,0.5061,0.5051,0.5048,0.5037,0.5028,0.5018,0.5013,0.4999,0.4995,0.4987,0.4973,0.4966,0.4948,0.4945,0.4927,0.4926,0.4931,0.493,0.4921,0.4922,0.4894,0.489,0.4911,0.4911,0.491,0,0.5069,0.5058,0.5048,0.5041,0.5035,0.5024,0.5017,0.5012,0.5004,0.4992,0.4984,0.497,0.4959,0.4937,0.4929,0.4916,0.4915,0.4906,0.4912,0.4914,0.4914,0.4915,0.4914,0.4904,0.4904,0.4904,0.4904,0,0.5045,0.5043,0.5033,0.5023,0.5014,0.5005,0.4996,0.499,0.4985,0.4976,0.4963,0.4955,0.4938,0.4924,0.4911,0.4904,0.4903,0.4902,0.4899,0.49,0.4903,0.4902,0.4927,0.4902,0.4902,0.4902,0.4902,0.4903,0.5028,0.5019,0.5011,0.5,0.4994,0.4986,0.4977,0.4972,0.4961,0.4948,0.4946,0.4932,0.4922,0.4905,0.4897,0.4886,0.4888,0.4884,0.4883,0.4882,0.4881,0.4906,0.4884,0.4884,0.4884,0.4884,0.4884,0,0.5004,0.4999,0.499,0.4978,0.497,0.4972,0.4962,0.4955,0.4943,0.4935,0.4925,0.491,0.4898,0.4889,0.4877,0.4869,0.4869,0.4866,0.4866,0.4865,0.488,0.4884,0.4867,0.4867,0.4867,0.4867,0.4867,0.4867,0.499,0.4976,0.4975,0.4957,0.4953,0.494,0.4935,0.4928,0.4921,0.4906,0.4896,0.4891,0.4883,0.487,0.4859,0.4857,0.4852,0.485,0.4847,0.4862,0.4864,0.4865,0.4869,0.4849,0.4849,0.4833,0.4833,0.4833]}]]